TimeCDT,TemperatureF,Dew PointF,Humidity,Sea Level PressureIn,VisibilityMPH,Wind Direction,Wind SpeedMPH,Gust SpeedMPH,PrecipitationIn,Events,Conditions,WindDirDegrees,DateUTC
12:53 AM,78.1,75.0,90,30.06,10.0,Calm,Calm,-,N/A,,Clear,0,2013-08-11 05:53:00
1:53 AM,77.0,75.0,94,30.04,10.0,SE,3.5,-,N/A,,Clear,130,2013-08-11 06:53:00
2:53 AM,78.1,75.0,90,30.04,10.0,East,4.6,-,N/A,,Clear,100,2013-08-11 07:53:00
3:53 AM,77.0,75.0,94,30.05,10.0,NE,4.6,-,N/A,,Clear,40,2013-08-11 08:53:00
4:53 AM,77.0,75.0,94,30.06,10.0,ENE,3.5,-,N/A,,Clear,60,2013-08-11 09:53:00
5:53 AM,77.0,75.0,94,30.06,9.0,ENE,4.6,-,N/A,,Clear,60,2013-08-11 10:53:00
6:53 AM,77.0,75.0,94,30.08,7.0,ENE,4.6,-,N/A,,Clear,60,2013-08-11 11:53:00
7:53 AM,79.0,75.9,90,30.08,10.0,East,4.6,-,N/A,,Clear,80,2013-08-11 12:53:00
8:53 AM,82.9,77.0,82,30.09,10.0,ESE,8.1,-,N/A,,Clear,110,2013-08-11 13:53:00
9:53 AM,87.1,75.9,69,30.10,10.0,ESE,8.1,-,N/A,,Clear,120,2013-08-11 14:53:00
10:53 AM,89.1,72.0,57,30.11,10.0,ESE,6.9,-,N/A,,Scattered Clouds,110,2013-08-11 15:53:00
11:53 AM,90.0,71.1,54,30.09,10.0,East,9.2,-,N/A,,Scattered Clouds,100,2013-08-11 16:53:00
12:53 PM,91.0,73.9,57,30.08,10.0,South,9.2,-,N/A,,Clear,190,2013-08-11 17:53:00
1:24 PM,91.4,71.6,52,30.05,10.0,South,6.9,16.1,0.00,Thunderstorm,Scattered Clouds,170,2013-08-11 18:24:00
1:53 PM,88.0,73.9,63,30.09,10.0,SSE,15.0,24.2,0.00,Thunderstorm,Mostly Cloudy,150,2013-08-11 18:53:00
2:19 PM,89.6,73.4,59,30.05,10.0,SSE,11.5,19.6,N/A,,Partly Cloudy,160,2013-08-11 19:19:00
2:33 PM,89.6,71.6,55,30.06,10.0,SSE,8.1,-,N/A,Thunderstorm,Clear,160,2013-08-11 19:33:00
2:53 PM,91.9,71.1,50,30.07,10.0,SE,10.4,16.1,N/A,,Clear,140,2013-08-11 19:53:00
3:53 PM,91.9,73.0,54,30.06,10.0,South,9.2,-,N/A,,Mostly Cloudy,180,2013-08-11 20:53:00
4:53 PM,88.0,75.0,65,30.06,4.0,SE,21.9,26.5,0.00,Rain,Light Rain,140,2013-08-11 21:53:00
5:01 PM,82.4,73.4,74,30.04,2.5,SSW,5.8,26.5,0.07,Rain,Light Rain,210,2013-08-11 22:01:00
5:07 PM,82.4,75.2,79,30.03,10.0,SW,4.6,-,0.07,Thunderstorm,Mostly Cloudy,230,2013-08-11 22:07:00
5:28 PM,84.2,75.2,74,30.03,10.0,South,5.8,-,0.07,,Scattered Clouds,170,2013-08-11 22:28:00
5:53 PM,86.0,75.0,70,30.06,10.0,SSE,10.4,-,0.07,,Scattered Clouds,150,2013-08-11 22:53:00
6:53 PM,84.9,73.9,69,30.06,10.0,South,5.8,-,N/A,,Partly Cloudy,170,2013-08-11 23:53:00
7:53 PM,84.0,75.9,76,30.07,10.0,SSE,5.8,-,N/A,,Clear,160,2013-08-12 00:53:00
8:53 PM,81.0,75.9,85,30.07,10.0,SSE,4.6,-,N/A,,Clear,150,2013-08-12 01:53:00
9:53 PM,80.1,75.9,87,30.08,10.0,SSE,5.8,-,N/A,,Clear,150,2013-08-12 02:53:00
10:53 PM,79.0,75.0,88,30.09,10.0,SE,4.6,-,N/A,,Clear,140,2013-08-12 03:53:00
11:53 PM,78.1,75.0,90,30.09,10.0,SSE,3.5,-,N/A,,Clear,150,2013-08-12 04:53:00